Погода в Павлодаре

Поиск расширенной информации на нашем сайте:

Полезная информация:

Новости сайта



02.01.2020
Опубликован Долгосрочный прогноз погоды по городам России и ближнего зарубежья на январь 2020 года.
Карты: Прогноз на январь и февраль 2020 года, Сравнение прогнозируемой аномалии приземной температуры воздуха на январь 2020 года по разным моделям.




Погода в Павлодаре - сегодня

Время (UTC), дата Ветер
(°,м/с) 
Видим.   Явления Облачность Т
(°С)
Тd
(°С)
f(%) Тe
(°С)
Pmin
(гПа)
dP
(гПа)
Po
(мм)
O2
(г/м3)
Тmin Tmax R s Состояние
почвы
12 19.10.20 190 (Ю) 20000 м    8/0 верхняя 
[Ci fib]
+5.9 -7.4 38 +5  1030.1  -2.7  761  301           
15 19.10.20 180 (Ю) 20000 м    ясно 
+1.6 -6.3 56 +1  1027.6  -2.7  759  305    +9.8       
18 19.10.20 190 (Ю) 20000 м    ясно 
-0.4 -5.3 69 1025.5  -2.1  758  306    +9.8       
21 19.10.20 180 (Ю) 20000 м    ясно 
-1.9 -5.8 75 -1  1023.4  -2.1  756  307           
00 20.10.20 180 (Ю) 20000 м    ясно 
-1.1 -4.7 76 -1  1023.1  -0.3  756  306           
03 20.10.20 190 (Ю) 20000 м    1/0 верхняя 
[Ci fib]
+2.7 -2.9 67 +2  1021.9  -1  755  302           
06 20.10.20 210 (ЮЗ) 20000 м    3/0 верхняя 
[Ci fib]
+15.9 +1.3 37 +17  1017.1  -4  752  286  -2.5         
09 20.10.20 260 (З) 20000 м    3/0 верхняя 
[Ci fib]
+18.6 +1.5 32 +19  1018.3  1.3  753  284           
12 20.10.20 220 (ЮЗ) 20000 м    3/0 верхняя 
[Ci fib]
+12.2 +1.7 49 +13  1018.4  -0.2  753  290           
15 20.10.20 190 (Ю) 20000 м    ясно 
+5.6 +1.9 77 +5  1018.6  -0.2  753  297    +18.9       
18 20.10.20 180 (Ю) 20000 м    ясно 
+3.1 +0.7 84 +4  1017.8  -0.9  752  300    +18.9       
21 20.10.20 180 (Ю) 20000 м    ясно 
+0.9 -1.7 83 1016.4  -1.5  751  302           
00 21.10.20 200 (Ю) 20000 м    ясно 
-0.3 -3.7 78 -1  1014.7  -1.7  750  303           
03 21.10.20 180 (Ю) 20000 м    1/0 верхняя 
[Ci fib]
+1.4 -3.1 72 +1  1013.3  -1.3  749  301           
06 21.10.20 220 (ЮЗ) 20000 м    3/0 верхняя 
[Ci fib]
+12.4 -3.6 33 +12  1010.3  -2.4  747  288  -1         
09 21.10.20 200 (Ю) 20000 м    3/0 верхняя 
[Ci fib]
+18.6 -8.7 15 +19  1006.8  -3.2  745  282           
12 21.10.20 190 (Ю) 20000 м    8/3 1000 м верхняя 
[Sc|Cs]
+11 -7.8 26 +11  1005  -2.1  743  289           
15 21.10.20 180 (Ю) 20000 м    8/0 верхняя 
[Cs]
+7.6 -3.4 46 +8  1002.7  -2.5  741  291    +18.6       
18 21.10.20 210 (ЮЗ) 20000 м    3/0 верхняя 
[Ci fib]
+10.1 -5.3 33 +9  1000.7  -1.8  740  288    +18.6       
21 21.10.20 230 (ЮЗ) 20000 м    8/0 верхняя 
[Ci fib]
+10.7 -2.2 40 +10  1000.8  0.2  740  287           
00 22.10.20 260 (З) 20000 м    10/8 1000 м кучево-дожд., средняя 
[Cb cap|Ac und]
+6.1 +3 80 +4  1004.1  742  292           
03 22.10.20 290 (З) 20000 м    10/8 600 м кучево-дожд., средняя 
[Cb cap|Ac und]
+3.8 -1.1 70 +2  1008  3.7  745  296           
06 22.10.20 280 (З) 20000 м    8/0 средняя 
[Ac trans]
+6.5 -3.3 50 +5  1010.6  2.7  747  294  +3.8         
09 22.10.20 260 (З) 20000 м    8/8 600 м 
[Cu med, cong]
+9.3 -6 33 +8  1010.8  0.3  747  292           
12 22.10.20 220 (ЮЗ) 20000 м    4/3 1000 м кучево-дожд., средняя 
[Cb calv|Ac trans]
+5.3 -4.8 48 +4  1012.3  1.3  748  296           
Время (UTC), дата Ветер
(°,м/с) 
Видим.   Явления Облачность Т
(°С)
Тd
(°С)
f(%) Тe
(°С)
Pmin
(гПа)
dP
(гПа)
Po
(мм)
O2
(г/м3)
Тmin Tmax R s Состояние
почвы

Для получения пояснительной информации подведите курсор к названию столбца.

ПОГОДА в Павлодаре - архив

Всё, что Вы хотите узнать о погоде в Павлодаре - удобно и подробно!

Выберите нужную дату (начиная с 1 января 2019* года) и нажмите кнопку "Найти".
Будут отображены архивные сводки погоды по пункту Павлодар, начиная с указанной даты.


Отображать данные в формате CSV (для использования в таблицах Excel)


Внимание! Наш архив погоды предназначен исключительно для личного некоммерческого использования в познавательных целях. Если Вам необходимы официальные справки о состоянии погоды (для производственных, юридических, коммерческих и т.п. целей), обращайтесь в органы Росгидромета.

*Примечание: данная дата относится к архиву по метеостанциям СССР (Россия, СНГ, Балтия).
Архив по метеостанциям Зарубежной Европы и Азии (кроме Китая) хранится 10 дней, по другим регионам земного шара (Китай, Африка, Америка, Австралия, Океания) - 1 день.

Павлодар - район местоположения метеостанции


Название, широта, долгота, высота метеостанции:
Павлодар 52.1°ш. 77.1°д. 125 м над ур. моря [Казахстан]

Дополнительная информация

В oтличие oт бoльшинства пoгoдных сайтoв мы публикуем пoдрoбную метеoинфoрмацию в детальнoм прoфессиoнальнoм фoрмате.

Характеристики температуры и влажнoсти вoздуха измеряются на высoте 2 м в тени вдали oт зданий и деревьев.
Скoрoсть ветра измеряется на высoте 10 м (на урoвне рoста челoвека скoрoсть ветра ниже в 1.5-2 раза). Если метеoстанция нахoдится в гoрoде или в лесу, тo скoрoсть ветра занижена на 2-4 м/с пo сравнению с oткрытым местoм. Скoрoсть ветра над акватoриями крупных рек и oзёр, а также на вершинах хoлмoв на 2-5 м/с выше, чем в oбычных услoвиях.
Атмoсфернoе давление в разных тoчках местнoсти мoжет значительнo oтличаться oт давления на метеoстанции, в зависимoсти oт услoвий рельефа (при пoдъёме на 10 м давление пoнижается примернo на 1 мм рт.ст.).